GLOBALSTAR M065 [+]

Last updated on Fri Dec 29 2023 00:02:56 GMT+0000 (Coordinated Universal Time)

1 31571U 07020A 23362.16273484 -.00000066 00000+0 21011-3 0 9997 2 31571 51.9907 60.7254 0010069 195.5635 251.0122 12.61961203765905
UTC large
Height (km)
Speed (km/s)
/
Latitude / Longitude
Inclination (degrees)
Orbital Period (minutes)
Azimuth
Elevation
Range (km)
Doppler Factor

Next 0 passes for location: London (51.5072 / 0.1276)

Sorry there are no passes over London.
GLOBALSTAR M065 [+]